Location: Newark
(40.3667°N, 3.7500°W)
Time: 17:07:37
(UTC+00:00)

ISS - Pass Details

Date: 26 October 2019
Orbit: 412 x 421 km, 51.6° (Epoch: 13 November)

Event Time Altitude Azimuth Distance (km) Brightness Sun altitude
Exits shadow 04:41:55 26° 157° (SSE) 864 -2.0 -22.6°
Maximum altitude 04:42:35 28° 134° (SE) 816 -1.9 -22.5°
Drops below altitude 10° 04:45:33 10° 74° (ENE) 1,504 0.1 -21.9°
Sets 04:47:44 0° 62° (ENE) 2,341 1.1 -21.5°
